Regional Weather Roundup
Issued by NWS Sterling, VA

Home | Current Version | Previous Version | Text Only | Print | Product List | Glossary Off
Versions: 1 2 3 4 5 6 7 8 9 10 11 12 13 14 15 16 17 18 19 20 21 22 23 24 25 26 27 28 29 30 31 32 33 34 35 36 37 38 39 40 41 42 43 44 45 46 47 48 49 50

000
ASUS41 KLWX 180610
RWRLWX

REGIONAL WEATHER ROUNDUP
NATIONAL WEATHER SERVICE BALTIMORE MD/WASHINGTON DC
200 AM EDT THU SEP 18 2014

Note: "FAIR" indicates few or no clouds below 12,000 feet
with no significant weather and/or obstructions to visibility.
 TC=TEMPERATURE CELSIUS

 * =Non NWS site. Station does not report precipitation (e.g. rain,
    snow, etc.), thunder, or fog.

DCZ001-MDZ009-015-VAZ040>042-051-053>054-180700-
WASHINGTON METRO

CITY           SKY/WX    TMP DP  RH WIND       PRES   REMARKS
WASHINGTON NAT MOCLDY    66  52  60 CALM      29.98S
DULLES         MOCLDY    55  51  86 CALM      29.98S
ANDREWS AFB    PTCLDY    56  52  86 CALM      29.97S
QUANTICO       PTCLDY    58  55  90 NW8       29.98S
COLLEGE PARK*  CLOUDY    57  55  94 CALM      29.97S
LEESBURG*      MOCLDY    55  55 100 CALM      29.99R
MANASSAS*      CLEAR     54  54 100 CALM      29.98S
GAITHERSBURG*  CLOUDY    54  52  94 CALM      30.01S

$$

MDZ006>007-011-014-180700-
BALTIMORE METRO

CITY           SKY/WX    TMP DP  RH WIND       PRES   REMARKS
BWI AIRPORT    PTCLDY    53  51  93 CALM      29.97S
MD SCIENCE CTR   N/A     63  51  65 MISG      29.98S
MARTIN STATE   CLEAR     54  52  94 CALM      29.99S
ANNAPOLIS      CLEAR     61  55  81 CALM      29.96F
FORT MEADE*    MOCLDY    50  48  93 CALM      30.00S

$$

MDZ012-015-019>023-180700-
MARYLAND EASTERN SHORE

CITY           SKY/WX    TMP DP  RH WIND       PRES   REMARKS
OCEAN CITY     CLEAR     51  49  92 CALM      29.97S
SALISBURY      CLEAR     55  50  83 CALM      29.97S
BAY BRIDGE AP*   N/A     63  52  67 CALM      29.97S
CAMBRIDGE*     PTCLDY    55  54  94 CALM      29.96F
EASTON*        PTCLDY    57  56  96 CALM      30.01S

$$

MDZ017>025-180700-
SOUTHERN MARYLAND

CITY           SKY/WX    TMP DP  RH WIND       PRES   REMARKS
PATUXENT RIVER CLOUDY    63  56  78 S3        29.96F
ST INIGOES       N/A    N/A N/A N/A MISG      29.95F
LEONARDTOWN*   CLOUDY    55  52  88 CALM      29.98S

$$

MDZ003>005-180700-
NORTH CENTRAL MARYLAND

CITY           SKY/WX    TMP DP  RH WIND       PRES   REMARKS
FREDERICK*     NOT AVBL
HAGERSTOWN APT PTCLDY    58  48  69 CALM      29.98R
WESTMINSTER*   PTCLDY    54  50  87 CALM      29.98S

$$

MDZ501>502-180700-
WESTERN MARYLAND

CITY           SKY/WX    TMP DP  RH WIND       PRES   REMARKS
OAKLAND*       PTCLDY    54  50  87 CALM      30.02S
CUMBERLAND*    PTCLDY    55  50  82 CALM      30.02S

$$

VAZ025>031-180700-
SHENANDOAH VALLEY

CITY           SKY/WX    TMP DP  RH WIND       PRES   REMARKS
WINCHESTER*    CLEAR     54  52  94 CALM      29.97S
STAUNTON*      CLEAR     55  51  89 CALM      30.00S

$$

WVZ021-048>050-054>055-180700-
EASTERN WEST VIRGINIA PANHANDLE

CITY           SKY/WX    TMP DP  RH WIND       PRES   REMARKS
MARTINSBURG    CLOUDY    57  52  83 CALM      29.98R
PETERSBURG*    FOG       51  49  93 CALM      30.00S VSB 3/4

$$

VAZ036>039-050-180700-
CENTRAL FOOTHILLS

CITY           SKY/WX    TMP DP  RH WIND       PRES   REMARKS
CHARLOTTESVILL CLEAR     56  53  90 CALM      29.98S
ORANGE*        PTCLDY    52  50  93 CALM      29.99S FOG

$$

VAZ055>057-180700-
NORTH AND CENTRAL PIEDMONT

CITY           SKY/WX    TMP DP  RH WIND       PRES   REMARKS
FREDERICKSBRG* MOCLDY    56  56 100 CALM      29.96F
STAFFORD*      PTCLDY    52  52 100 CALM      30.01S

$$

NCZ024-NYZ072-PAZ021-071-VAZ022-071-180700-
OTHER REGIONAL OBSERVATIONS

CITY           SKY/WX    TMP DP  RH WIND       PRES   REMARKS
NEW YORK CITY  CLEAR     61  51  70 W5        30.00S
PHILADELPHIA   CLEAR     63  53  70 S3        29.98S
ROANOKE        PTCLDY    57  55  93 CALM      30.00F
RICHMOND       CLEAR     62  58  86 CALM      29.96F
RALEIGH        PTCLDY    65  59  81 SE3       29.96F

$$

ANZ530>537-180700-
MARINE OBSERVATIONS

STATION/POSITION TIME  TEMP    WIND        PRES
                       AIR SEA DIR/SP/G
                 (UTC) (F)     (DEG/KT/KT) (MB)
THOMAS PT LIGHT  0600   68 74  160/ 12/ 13 1015.6F
BALT KEY BRIDGE  0600   66     230/  2/  2 1014.7R
COVE POINT       0600   69     170/ 11/ 12 1014.5F
LEWISETTA        0600   65 74  230/  3/  3 1014.2S
SOLOMONS ISLAND  0600      76                N/A
PINEY POINT      0600          190/  8/ 10   N/A

$$



USA.gov is the U.S. government's official web portal to all federal, state and local government web resources and services.